Notices

What's New in latest Release from April 7th, 2021:

- Updated Glossary, including Speed of Maximum Gust, and Total Hourly Precipitation

- Updated national and regional climate services offices contacts and prices information

- Addition of station inventory lists for 1981-2010, 1971-2000, and 1961-1990 Normals.

If you haven't already, please take our survey and provide feedback about our website: https://eccc.sondage-survey.ca/f/LanguageSelection.aspx?s=442ca660-fcf1-47c0-95a9-59707d6fd709

Hourly Data Report for February 25, 2012

HALIFAX STANFIELD INT'L A
NOVA SCOTIA

44°52'48.060" N
63°30'00.050" W
145.40 m
8202250
71395
YHZ

Download Data

Hourly Data (February 2012)
Hourly Data Report for February 25, 2012
TIME
LST
Temp Definition
°C
Dew Point Definition
°C
Rel Hum Definition
%
Precip. Amount Definition
mm

Wind Dir Definition
10's deg

Wind Spd Definition
km/h
Visibility Definition
km
Stn Press Definition
kPa
Hmdx Definition


Wind Chill Definition


Weather Definition


00:00 -0.1 -1.6 90   12 20 24.1 98.47   -5 Cloudy
01:00 0.3 -1.4 88   12 22 24.1 98.39     Cloudy
02:00 0.3 -1.1 90   13 32 16.1 98.16     Freezing Rain
03:00 0.3 -0.6 94   11 41 16.1 97.59     Freezing Rain
04:00 0.2 -0.6 94   11 48 6.4 97.37     Freezing Rain,Fog
05:00 0.4 -0.4 94   12 63 4.8 96.90     Rain,Fog
06:00 0.6 0.1 96   12 61 6.4 96.58     Rain,Fog
07:00 2.7 2.4 98   13 41 9.7 96.40     Moderate Rain Showers,Fog
08:00 5.7 5.7 100   21 43 9.7 96.15     Fog
09:00 5.1 4.9 99   22 48 24.1 96.22     Mostly Cloudy
10:00 3.8 2.1 89   24 41 24.1 96.31     Mostly Cloudy
11:00 3.7 1.6 86   23 37 16.1 96.37     Rain Showers
12:00 3.0 0.5 84   22 52 24.1 96.36     Rain Showers
13:00 3.0 0.4 83   23 54 16.1 96.34     Rain Showers
14:00 3.5 0.5 81   23 33 24.1 96.39     Mostly Cloudy
15:00 3.2 -1.1 73   24 46 19.3 96.44     Snow Showers
16:00 3.5 -2.3 66   23 39 24.1 96.49     Mostly Cloudy
17:00 2.6 -2.1 71   24 33 24.1 96.55     Cloudy
18:00 1.7 -2.8 72   24 33 24.1 96.58     Mostly Cloudy
19:00 1.8 -2.8 71   24 37 16.1 96.66     Snow Showers
20:00 1.1 -2.1 79   24 30 19.3 96.72     Snow Showers
21:00 0.5 -1.4 87   25 26 12.9 96.79     Snow Showers
22:00 0.0 -0.9 94   25 26 1.6 96.86   -6 Snow Showers
23:00 -0.5 -1.6 92   28 39 2.4 96.94   -8 Snow Showers

Notes on Data Quality.

Legend

  • E = Estimated
  • M = Missing
  • NA = Not Available*
  • [empty] = Indicates an unobserved value
Date modified: